User: anonymous   Login
Location: Montr�al
(45.5000°N, 73.5830°W)
Time: 11:15:53
(UTC-04:00)
Language:

Cosmos 1151 Rocket - Orbit

View from above orbital plane
View from above orbital plane
View from above satellite
View from above satellite

Ground track
Ground track

The orbit data is extracted from the following two-line orbital elements,

1 11672U 80005B   14297.47909552  .00000914  00000-0  98523-4 0  1621
2 11672 082.5149 271.5273 0015273 285.5577 194.5364 14.87288467879676
Epoch (UTC): 24 October 2014 11:29:53
Eccentricity: 0.0015273
inclination: 82.5149°
perigee height: 596 km
apogee height: 617 km
right ascension of ascending node: 271.5273°
argument of perigee: 285.5577°
revolutions per day: 14.87288467
mean anomaly at epoch: 194.5364°
orbit number at epoch: 87967

The dashed part of the orbit path shows where the satellite is in the earth's shadow,  

DLR